カタログに戻る

FENGYUN 1C DEB

運用中PO
NORAD 33663·DEBRIS·🇨🇳 China

打ち上げ May 10, 1999 から Taiyuan Satellite Launch Center

Loading…

次のパス (今後24時間)

TLE

経年Source: Space-Track

元期: Sep 9, 2026, 07:52 UTC

1 33663U 99025DEY 26252.32821440  .00020757  00000-0  27980-2 0  9996
2 33663  98.8877 272.9540 0057990 249.9823 109.5135 14.78004565681803

AllMySatでFENGYUN 1C DEBをリアルタイム追跡

Download on the App Store